Date String (YYYY-MM-DD hh:mm:ss) UTC,Instrument flags,absolute air pressure of the measurement (hPa),sample flow rate (lpm),inlet stack bypass flow (lpm),air temperature of the measurement (°C),ambient temperature measured by the external sensor (°C),aerosol sample conditioner tube jacket temperature (°C),OPC LED temperature (°C),internal box temperature (°C),relative humidity of the measurement (%),span deviation,mass concentration of particles derived from Lorenz-Mie calculation of OPC scattering (μg/m³),mass concentration of particles derived from Lorenz-Mie calculation of OPC scattering (μg/m³),mass concentration of particles derived from Lorenz-Mie calculation of OPC scattering (μg/m³)
DateTimeUTC,F1_M11,P_M11,Q1_M11,Q2_M11,T1_M11,T2_M11,T3_M11,T4_M11,T5_M11,U1_M11,ZSPAN_M11,X2_M11,X0_M11,X1_M11
2023-07-31 06:00:00,SystemResetWarning,0833.3,5.00,000.00,028.8,026.4,000.0,037.2,030.4,30.9,0000.0,0005.02,0010.09,0004.29
2023-07-31 06:01:00,SystemResetWarning,0833.3,5.00,000.00,028.9,026.8,000.0,037.3,030.4,30.6,0000.0,0004.96,0010.00,0004.27
2023-07-31 06:02:00,SystemResetWarning,0833.4,5.00,000.00,028.9,027.1,000.0,037.3,030.5,30.3,0000.0,0005.03,0010.35,0004.27
2023-07-31 06:03:00,SystemResetWarning,0833.4,4.99,000.00,028.9,027.4,000.0,037.3,030.6,30.2,0000.0,0005.09,0010.65,0004.28
2023-07-31 06:04:00,SystemResetWarning,0833.4,5.00,000.00,029.0,027.6,000.0,037.3,030.7,30.4,0000.0,0005.11,0010.74,0004.29
2023-07-31 06:05:00,SystemResetWarning,0833.4,5.00,000.00,029.0,027.8,000.0,037.3,030.7,29.9,0000.0,0005.10,0010.55,0004.29
2023-07-31 06:06:00,SystemResetWarning,0833.4,5.00,000.00,029.1,027.6,000.0,037.3,030.8,29.6,0000.0,0005.08,0011.23,0004.29
2023-07-31 06:07:00,SystemResetWarning,0833.4,5.00,000.00,029.0,025.9,000.0,037.2,030.5,29.6,0000.0,0005.06,0011.64,0004.29
2023-07-31 06:08:00,SystemResetWarning,0833.4,5.00,000.00,028.9,024.7,000.0,037.1,030.2,29.9,0000.0,0005.10,0011.82,0004.32
2023-07-31 06:09:00,SystemResetWarning,0833.4,5.00,000.00,028.8,024.5,000.0,037.1,030.0,30.3,0000.0,0005.15,0011.94,0004.35
2023-07-31 06:10:00,SystemResetWarning,0833.4,5.01,000.00,028.7,024.9,000.0,037.1,029.9,30.7,0000.0,0005.13,0011.90,0004.35
2023-07-31 06:11:00,SystemResetWarning,0833.4,5.00,000.00,028.7,025.4,000.0,037.1,030.0,30.8,0000.0,0005.17,0012.12,0004.35
2023-07-31 06:12:00,SystemResetWarning,0833.4,4.99,000.00,028.7,025.9,000.0,037.2,030.1,30.3,0000.0,0005.19,0012.09,0004.33
2023-07-31 06:13:00,SystemResetWarning,0833.4,5.01,000.00,028.7,026.3,000.0,037.2,030.2,30.1,0000.0,0005.16,0011.78,0004.34
2023-07-31 06:14:00,SystemResetWarning,0833.4,5.01,000.00,028.7,026.7,000.0,037.2,030.3,30.0,0000.0,0005.15,0011.82,0004.34
2023-07-31 06:15:00,SystemResetWarning,0833.4,5.00,000.00,028.8,027.0,000.0,037.2,030.4,30.0,0000.0,0005.14,0012.03,0004.34
2023-07-31 06:16:00,SystemResetWarning,0833.4,5.00,000.00,028.8,027.3,000.0,037.2,030.5,30.1,0000.0,0005.13,0012.03,0004.32
2023-07-31 06:17:00,SystemResetWarning,0833.4,4.99,000.00,028.8,027.5,000.0,037.2,030.6,30.0,0000.0,0005.10,0011.33,0004.32
2023-07-31 06:18:00,SystemResetWarning,0833.5,5.00,000.00,028.9,027.7,000.0,037.2,030.6,30.0,0000.0,0005.10,0010.68,0004.32
2023-07-31 06:19:00,SystemResetWarning,0833.4,5.00,000.00,028.9,027.8,000.0,037.3,030.7,31.2,0000.0,0005.10,0010.17,0004.32
2023-07-31 06:20:00,SystemResetWarning,0833.5,5.00,000.00,029.0,028.0,000.0,037.3,030.7,31.8,0000.0,0005.05,0009.78,0004.30
2023-07-31 06:21:00,SystemResetWarning,0833.5,5.00,000.00,029.0,028.1,000.0,037.3,030.8,31.0,0000.0,0005.05,0010.00,0004.30
2023-07-31 06:22:00,SystemResetWarning,0833.4,4.98,000.00,029.1,026.9,000.0,037.2,030.7,30.6,0000.0,0005.01,0010.13,0004.31
2023-07-31 06:23:00,SystemResetWarning,0833.4,5.01,000.00,029.0,025.1,000.0,037.1,030.4,30.8,0000.0,0005.04,0010.18,0004.33
2023-07-31 06:24:00,SystemResetWarning,0833.4,5.01,000.00,028.9,024.5,000.0,037.1,030.2,30.9,0000.0,0005.02,0010.75,0004.33
2023-07-31 06:25:00,SystemResetWarning,0833.4,5.01,000.00,028.8,024.7,000.0,037.1,030.0,30.9,0000.0,0004.99,0011.84,0004.33
2023-07-31 06:26:00,SystemResetWarning,0833.4,4.99,000.00,028.7,025.2,000.0,037.1,030.0,30.9,0000.0,0004.94,0011.39,0004.32
2023-07-31 06:27:00,SystemResetWarning,0833.4,5.00,000.00,028.7,025.6,000.0,037.1,030.1,30.4,0000.0,0004.97,0011.44,0004.33
2023-07-31 06:28:00,SystemResetWarning,0833.4,5.00,000.00,028.7,026.1,000.0,037.2,030.2,29.9,0000.0,0005.01,0011.67,0004.37
2023-07-31 06:29:00,SystemResetWarning,0833.4,5.00,000.00,028.7,026.5,000.0,037.2,030.3,30.5,0000.0,0005.03,0011.74,0004.38
2023-07-31 06:30:00,SystemResetWarning,0833.4,5.00,000.00,028.8,026.8,000.0,037.2,030.4,31.3,0000.0,0004.99,0011.71,0004.39
2023-07-31 06:31:00,SystemResetWarning,0833.4,5.00,000.00,028.8,027.1,000.0,037.2,030.5,30.5,0000.0,0004.98,0011.68,0004.39
2023-07-31 06:32:00,SystemResetWarning,0833.4,4.99,000.00,028.8,027.3,000.0,037.2,030.5,30.3,0000.0,0004.98,0012.13,0004.39
2023-07-31 06:33:00,SystemResetWarning,0833.4,5.00,000.00,028.9,027.5,000.0,037.2,030.6,29.9,0000.0,0004.98,0011.74,0004.38
2023-07-31 06:34:00,SystemResetWarning,0833.4,4.99,000.00,028.9,027.7,000.0,037.3,030.6,30.0,0000.0,0004.97,0011.81,0004.37
2023-07-31 06:35:00,SystemResetWarning,0833.5,5.00,000.00,029.0,027.9,000.0,037.3,030.7,29.9,0000.0,0004.98,0011.64,0004.38
2023-07-31 06:36:00,SystemResetWarning,0833.5,5.00,000.00,029.0,028.0,000.0,037.3,030.8,30.4,0000.0,0005.03,0010.25,0004.39
2023-07-31 06:37:00,SystemResetWarning,0833.5,5.01,000.00,029.1,028.1,000.0,037.3,030.8,30.9,0000.0,0005.07,0010.48,0004.42
2023-07-31 06:38:00,SystemResetWarning,0833.5,5.01,000.00,029.1,027.8,000.0,037.3,030.8,30.3,0000.0,0005.07,0011.41,0004.44
2023-07-31 06:39:00,SystemResetWarning,0833.5,4.99,000.00,029.1,026.2,000.0,037.2,030.7,29.8,0000.0,0005.10,0011.32,0004.46
2023-07-31 06:40:00,SystemResetWarning,0833.4,5.01,000.00,029.0,025.5,000.0,037.2,030.5,29.7,0000.0,0005.12,0012.03,0004.47
2023-07-31 06:41:00,SystemResetWarning,0833.4,5.01,000.00,028.9,025.5,000.0,037.2,030.3,29.5,0000.0,0005.16,0012.97,0004.49
2023-07-31 06:42:00,SystemResetWarning,0833.4,5.01,000.00,028.9,025.9,000.0,037.2,030.3,29.5,0000.0,0005.18,0013.32,0004.51
2023-07-31 06:43:00,SystemResetWarning,0833.4,4.99,000.00,028.9,026.3,000.0,037.3,030.4,30.7,0000.0,0005.21,0013.13,0004.52
2023-07-31 06:44:00,SystemResetWarning,0833.4,5.00,000.00,028.9,026.6,000.0,037.3,030.5,30.8,0000.0,0005.23,0013.36,0004.54
2023-07-31 06:45:00,SystemResetWarning,0833.5,5.00,000.00,028.9,027.0,000.0,037.3,030.5,30.4,0000.0,0005.25,0013.27,0004.55
2023-07-31 06:46:00,SystemResetWarning,0833.4,5.00,000.00,028.9,027.2,000.0,037.3,030.6,29.5,0000.0,0005.24,0012.75,0004.54
2023-07-31 06:47:00,SystemResetWarning,0833.5,5.00,000.00,029.0,027.5,000.0,037.3,030.7,29.3,0000.0,0005.21,0012.71,0004.54
2023-07-31 06:48:00,SystemResetWarning,0833.5,5.00,000.00,029.0,027.7,000.0,037.4,030.7,29.1,0000.0,0005.24,0013.09,0004.55
2023-07-31 06:49:00,SystemResetWarning,0833.6,5.00,000.00,029.1,027.8,000.0,037.4,030.8,28.8,0000.0,0005.26,0012.80,0004.55
2023-07-31 06:50:00,SystemResetWarning,0833.6,5.00,000.00,029.1,028.0,000.0,037.4,030.8,28.8,0000.0,0005.23,0012.90,0004.53
2023-07-31 06:51:00,SystemResetWarning,0833.6,4.98,000.00,029.1,027.4,000.0,037.4,030.8,29.1,0000.0,0005.21,0012.54,0004.52
2023-07-31 06:52:00,SystemResetWarning,0833.6,5.01,000.00,029.1,025.9,000.0,037.3,030.6,29.5,0000.0,0005.20,0012.38,0004.50
2023-07-31 06:53:00,SystemResetWarning,0833.5,5.01,000.00,029.0,025.4,000.0,037.2,030.4,29.9,0000.0,0005.22,0012.12,0004.48
2023-07-31 06:54:00,SystemResetWarning,0833.5,5.00,000.00,028.9,025.6,000.0,037.3,030.2,29.6,0000.0,0005.21,0011.71,0004.47
2023-07-31 06:55:00,SystemResetWarning,0833.5,5.00,000.00,028.9,026.0,000.0,037.3,030.3,29.7,0000.0,0005.23,0011.44,0004.48
2023-07-31 06:56:00,SystemResetWarning,0833.5,4.99,000.00,028.9,026.3,000.0,037.3,030.4,29.5,0000.0,0005.26,0011.49,0004.49
2023-07-31 06:57:00,SystemResetWarning,0833.5,5.01,000.00,028.9,026.7,000.0,037.3,030.5,29.3,0000.0,0005.27,0011.49,0004.51
2023-07-31 06:58:00,SystemResetWarning,0833.5,5.00,000.00,028.9,027.0,000.0,037.3,030.6,29.3,0000.0,0005.26,0011.53,0004.52
2023-07-31 06:59:00,SystemResetWarning,0833.6,5.00,000.00,029.0,027.3,000.0,037.4,030.6,29.2,0000.0,0005.25,0011.01,0004.51
